Time,TemperatureF,DewpointF,PressureIn,WindDirection,WindDirectionDegrees,WindSpeedMPH,WindSpeedGustMPH,Humidity,HourlyPrecipIn,Conditions,Clouds,dailyrainin,SoftwareType,DateUTC
2013-04-18 00:02:00,58.0,56.0,29.78,ENE,70,13.0,13.0,93,0.93,,,1.88,,2013-04-18 05:02:00,
2013-04-18 00:12:00,57.0,56.0,29.71,East,90,12.0,13.0,96,0.02,,,1.90,,2013-04-18 05:12:00,
2013-04-18 00:22:00,57.0,56.0,29.71,East,90,12.0,13.0,96,0.02,,,1.90,,2013-04-18 05:22:00,
2013-04-18 00:32:00,57.0,56.0,29.69,East,90,12.0,26.0,96,0.02,,,1.90,,2013-04-18 05:32:00,
2013-04-18 00:42:00,57.0,56.0,29.69,East,90,12.0,26.0,96,0.02,,,1.90,,2013-04-18 05:42:00,
2013-04-18 00:52:00,57.0,56.0,29.69,East,90,12.0,26.0,96,0.02,,,1.90,,2013-04-18 05:52:00,
2013-04-18 01:02:00,57.0,54.0,29.69,ENE,60,13.0,26.0,89,0.02,,,1.90,,2013-04-18 06:02:00,
2013-04-18 01:12:00,57.0,54.0,29.69,ENE,60,13.0,26.0,89,0.02,,,1.90,,2013-04-18 06:12:00,
2013-04-18 01:22:00,57.0,55.0,29.68,NE,40,7.0,13.0,93,0.03,,,1.93,,2013-04-18 06:22:00,
2013-04-18 01:32:00,57.0,55.0,29.65,East,90,14.0,14.0,93,0.03,,,1.93,,2013-04-18 06:32:00,
2013-04-18 01:42:00,57.0,55.0,29.64,ENE,70,14.0,14.0,93,0.03,,,1.93,,2013-04-18 06:42:00,
2013-04-18 01:52:00,57.0,55.0,29.64,ENE,70,14.0,14.0,93,0.03,,,1.93,,2013-04-18 06:52:00,
2013-04-18 02:02:00,57.0,55.0,29.68,West,260,15.0,25.0,93,0.03,,,1.93,,2013-04-18 07:02:00,
2013-04-18 02:12:00,57.0,55.0,29.68,West,260,15.0,25.0,93,0.01,,,1.94,,2013-04-18 07:12:00,
2013-04-18 02:22:00,57.0,55.0,29.68,West,260,15.0,25.0,93,0.01,,,1.94,,2013-04-18 07:22:00,
2013-04-18 02:32:00,57.0,55.0,29.65,West,260,15.0,25.0,93,0.01,,,1.94,,2013-04-18 07:32:00,
2013-04-18 02:42:00,57.0,55.0,29.65,West,260,15.0,25.0,93,0.01,,,1.94,,2013-04-18 07:42:00,
2013-04-18 02:52:00,57.0,55.0,29.65,West,260,15.0,25.0,93,0.01,,,1.94,,2013-04-18 07:52:00,
2013-04-18 03:02:00,57.0,55.0,29.66,NW,310,14.0,26.0,93,0.01,,,1.94,,2013-04-18 08:02:00,
2013-04-18 03:12:00,57.0,56.0,29.65,NNW,340,8.0,26.0,96,0.11,,,2.05,,2013-04-18 08:12:00,
2013-04-18 03:22:00,57.0,56.0,29.65,NNW,340,8.0,26.0,96,0.11,,,2.05,,2013-04-18 08:22:00,
2013-04-18 03:32:00,57.0,56.0,29.65,North,350,9.0,25.0,96,0.11,,,2.05,,2013-04-18 08:32:00,
2013-04-18 03:42:00,55.0,54.0,29.63,NNE,30,8.0,9.0,96,0.11,,,2.05,,2013-04-18 08:42:00,
2013-04-18 03:52:00,55.0,54.0,29.63,NNE,30,8.0,9.0,96,0.11,,,2.05,,2013-04-18 08:52:00,
2013-04-18 04:02:00,55.0,54.0,29.63,NNE,30,8.0,8.0,96,0.11,,,2.05,,2013-04-18 09:02:00,
2013-04-18 04:12:00,55.0,54.0,29.63,NNE,30,8.0,8.0,96,0.00,,,2.05,,2013-04-18 09:12:00,
2013-04-18 04:22:00,55.0,54.0,29.63,NNE,30,8.0,8.0,96,0.00,,,2.05,,2013-04-18 09:22:00,
2013-04-18 04:32:00,52.0,51.0,29.62,NNE,20,12.0,25.0,96,0.07,,,2.12,,2013-04-18 09:32:00,
2013-04-18 04:42:00,52.0,51.0,29.62,NNE,20,12.0,25.0,96,0.07,,,2.12,,2013-04-18 09:42:00,
2013-04-18 04:53:00,52.0,51.0,29.62,NNE,20,12.0,25.0,96,0.07,,,2.12,,2013-04-18 09:53:00,
2013-04-18 05:03:00,52.0,51.0,29.62,NNE,20,12.0,25.0,96,0.07,,,2.12,,2013-04-18 10:03:00,
2013-04-18 05:12:00,52.0,51.0,29.62,NNE,20,12.0,25.0,96,0.07,,,2.12,,2013-04-18 10:12:00,
2013-04-18 05:23:00,52.0,51.0,29.62,NNE,20,12.0,25.0,96,0.14,,,2.19,,2013-04-18 10:23:00,
2013-04-18 05:32:00,53.0,52.0,29.59,NE,40,10.0,25.0,96,0.07,,,2.19,,2013-04-18 10:32:00,
2013-04-18 05:42:00,53.0,52.0,29.59,NE,40,10.0,25.0,96,0.07,,,2.19,,2013-04-18 10:42:00,
2013-04-18 05:52:00,53.0,52.0,29.59,NE,40,10.0,24.0,96,0.07,,,2.19,,2013-04-18 10:52:00,
2013-04-18 06:02:00,53.0,52.0,29.57,ENE,60,21.0,44.0,96,0.07,,,2.19,,2013-04-18 11:02:00,
2013-04-18 06:12:00,55.0,54.0,29.59,North,350,9.0,44.0,96,0.03,,,2.22,,2013-04-18 11:12:00,
2013-04-18 06:22:00,55.0,54.0,29.59,North,350,9.0,44.0,96,0.03,,,2.22,,2013-04-18 11:22:00,
2013-04-18 06:32:00,55.0,54.0,29.59,North,350,9.0,9.0,96,0.03,,,2.22,,2013-04-18 11:32:00,
2013-04-18 06:42:00,55.0,54.0,29.59,North,350,9.0,9.0,96,0.03,,,2.22,,2013-04-18 11:42:00,
2013-04-18 06:52:00,55.0,54.0,29.59,North,350,9.0,9.0,96,0.03,,,2.22,,2013-04-18 11:52:00,
2013-04-18 07:02:00,55.0,54.0,29.59,North,350,9.0,9.0,96,0.03,,,2.22,,2013-04-18 12:02:00,
2013-04-18 07:12:00,55.0,54.0,29.59,North,350,9.0,9.0,96,0.03,,,2.22,,2013-04-18 12:12:00,
2013-04-18 07:22:00,55.0,54.0,29.59,North,350,9.0,9.0,96,0.53,,,2.75,,2013-04-18 12:22:00,
2013-04-18 07:32:00,55.0,54.0,29.58,North,350,0.0,9.0,96,0.53,,,2.75,,2013-04-18 12:32:00,
2013-04-18 07:42:00,55.0,54.0,29.58,North,350,0.0,9.0,96,0.53,,,2.75,,2013-04-18 12:42:00,
2013-04-18 07:52:00,55.0,54.0,29.58,North,350,0.0,0.0,96,0.53,,,2.75,,2013-04-18 12:52:00,
2013-04-18 08:02:00,55.0,54.0,29.58,North,350,0.0,0.0,96,0.53,,,2.75,,2013-04-18 13:02:00,
2013-04-18 08:12:00,55.0,54.0,29.58,North,350,0.0,0.0,96,0.02,,,2.77,,2013-04-18 13:12:00,
2013-04-18 08:22:00,55.0,54.0,29.58,North,350,0.0,0.0,96,0.02,,,2.77,,2013-04-18 13:22:00,
2013-04-18 08:32:00,54.0,53.0,29.61,South,170,7.0,7.0,96,0.02,,,2.77,,2013-04-18 13:32:00,
2013-04-18 08:42:00,55.0,54.0,29.61,South,180,10.0,10.0,96,0.02,,,2.77,,2013-04-18 13:42:00,
2013-04-18 08:53:00,55.0,54.0,29.61,South,180,10.0,10.0,96,0.02,,,2.77,,2013-04-18 13:53:00,
2013-04-18 09:02:00,55.0,54.0,29.60,South,180,9.0,10.0,96,0.02,,,2.77,,2013-04-18 14:02:00,
2013-04-18 09:12:00,55.0,54.0,29.60,South,180,9.0,9.0,96,0.04,,,2.81,,2013-04-18 14:12:00,
2013-04-18 09:22:00,55.0,54.0,29.60,South,180,9.0,9.0,96,0.04,,,2.81,,2013-04-18 14:22:00,
2013-04-18 09:32:00,56.0,55.0,29.58,South,180,12.0,12.0,96,0.04,,,2.81,,2013-04-18 14:32:00,
2013-04-18 09:42:00,56.0,55.0,29.58,South,180,12.0,12.0,96,0.04,,,2.81,,2013-04-18 14:42:00,
2013-04-18 09:52:00,56.0,55.0,29.58,South,180,12.0,12.0,96,0.04,,,2.81,,2013-04-18 14:52:00,
2013-04-18 10:02:00,57.0,56.0,29.56,South,180,20.0,20.0,96,0.04,,,2.81,,2013-04-18 15:02:00,
2013-04-18 10:12:00,57.0,56.0,29.56,South,180,20.0,20.0,96,0.04,,,2.81,,2013-04-18 15:12:00,
2013-04-18 10:22:00,58.0,57.0,29.58,SSW,200,13.0,26.0,96,0.01,,,2.82,,2013-04-18 15:22:00,
2013-04-18 10:33:00,59.0,58.0,29.59,SSW,210,14.0,26.0,96,0.01,,,2.82,,2013-04-18 15:33:00,
2013-04-18 10:42:00,59.0,58.0,29.59,SSW,210,14.0,14.0,96,0.01,,,2.82,,2013-04-18 15:42:00,
2013-04-18 10:53:00,59.0,58.0,29.59,SSW,210,14.0,14.0,96,0.01,,,2.82,,2013-04-18 15:53:00,
2013-04-18 11:03:00,59.0,58.0,29.59,SSW,210,14.0,14.0,96,0.01,,,2.82,,2013-04-18 16:03:00,
2013-04-18 11:13:00,61.0,59.0,29.60,South,190,13.0,14.0,93,0.02,,,2.84,,2013-04-18 16:13:00,
2013-04-18 11:23:00,61.0,59.0,29.60,South,190,13.0,14.0,93,0.02,,,2.84,,2013-04-18 16:23:00,
2013-04-18 11:33:00,61.0,60.0,29.60,South,190,14.0,14.0,96,0.02,,,2.84,,2013-04-18 16:33:00,
2013-04-18 11:42:00,61.0,60.0,29.60,South,190,14.0,14.0,96,0.02,,,2.84,,2013-04-18 16:42:00,
2013-04-18 11:53:00,61.0,60.0,29.60,South,190,14.0,14.0,96,0.02,,,2.84,,2013-04-18 16:53:00,
2013-04-18 12:02:00,61.0,60.0,29.60,South,190,14.0,14.0,96,0.02,,,2.84,,2013-04-18 17:02:00,
2013-04-18 12:12:00,61.0,60.0,29.60,South,190,14.0,14.0,96,0.02,,,2.86,,2013-04-18 17:12:00,
2013-04-18 12:22:00,61.0,60.0,29.60,South,190,14.0,14.0,96,0.02,,,2.86,,2013-04-18 17:22:00,
2013-04-18 12:33:00,61.0,59.0,29.59,South,180,17.0,25.0,93,0.02,,,2.86,,2013-04-18 17:33:00,
2013-04-18 12:42:00,61.0,59.0,29.59,South,180,17.0,25.0,93,0.02,,,2.86,,2013-04-18 17:42:00,
2013-04-18 12:52:00,61.0,59.0,29.59,South,180,17.0,25.0,93,0.02,,,2.86,,2013-04-18 17:52:00,
2013-04-18 13:02:00,61.0,59.0,29.59,South,180,17.0,25.0,93,0.02,,,2.86,,2013-04-18 18:02:00,
2013-04-18 13:12:00,61.0,59.0,29.59,South,180,17.0,25.0,93,0.05,,,2.91,,2013-04-18 18:12:00,
2013-04-18 13:22:00,61.0,59.0,29.59,South,180,17.0,25.0,93,0.05,,,2.91,,2013-04-18 18:22:00,
2013-04-18 13:32:00,61.0,59.0,29.54,South,170,18.0,28.0,93,0.05,,,2.91,,2013-04-18 18:32:00,
2013-04-18 13:42:00,61.0,59.0,29.53,South,190,15.0,33.0,93,0.05,,,2.91,,2013-04-18 18:42:00,
2013-04-18 13:52:00,61.0,59.0,29.53,South,190,15.0,33.0,93,0.05,,,2.91,,2013-04-18 18:52:00,
2013-04-18 14:02:00,61.0,59.0,29.53,South,190,15.0,33.0,93,0.05,,,2.91,,2013-04-18 19:02:00,
2013-04-18 14:12:00,61.0,59.0,29.53,South,190,15.0,33.0,93,0.05,,,2.91,,2013-04-18 19:12:00,
2013-04-18 14:22:00,61.0,59.0,29.53,South,190,15.0,33.0,93,0.00,,,2.91,,2013-04-18 19:22:00,
2013-04-18 14:32:00,62.0,59.0,29.54,South,170,12.0,33.0,89,0.00,,,2.91,,2013-04-18 19:32:00,
2013-04-18 14:42:00,62.0,59.0,29.54,South,170,12.0,33.0,89,0.00,,,2.91,,2013-04-18 19:42:00,
2013-04-18 14:53:00,62.0,59.0,29.54,South,170,12.0,26.0,89,0.00,,,2.90,,2013-04-18 19:53:00,
2013-04-18 15:02:00,62.0,59.0,29.53,SSE,160,16.0,28.0,89,0.00,,,2.90,,2013-04-18 20:02:00,
2013-04-18 15:12:00,62.0,59.0,29.53,SSE,160,16.0,28.0,89,0.00,,,2.90,,2013-04-18 20:12:00,
2013-04-18 15:22:00,62.0,59.0,29.53,SSE,160,16.0,28.0,89,0.00,,,2.89,,2013-04-18 20:22:00,
2013-04-18 15:32:00,62.0,59.0,29.51,South,180,17.0,28.0,89,0.00,,,2.89,,2013-04-18 20:32:00,
2013-04-18 15:42:00,62.0,59.0,29.51,South,180,17.0,17.0,89,0.00,,,2.89,,2013-04-18 20:42:00,
2013-04-18 15:52:00,62.0,59.0,29.51,South,180,17.0,17.0,89,0.00,,,2.89,,2013-04-18 20:52:00,
2013-04-18 16:02:00,62.0,59.0,29.51,South,180,17.0,17.0,89,0.00,,,2.89,,2013-04-18 21:02:00,
2013-04-18 16:12:00,62.0,59.0,29.51,South,180,17.0,17.0,89,0.00,,,2.89,,2013-04-18 21:12:00,
2013-04-18 16:22:00,62.0,59.0,29.51,South,180,17.0,17.0,89,0.00,,,2.89,,2013-04-18 21:22:00,
2013-04-18 16:32:00,62.0,60.0,29.47,South,190,17.0,33.0,93,0.01,,,2.85,,2013-04-18 21:32:00,
2013-04-18 16:43:00,58.0,55.0,29.53,West,260,22.0,49.0,90,0.01,,,2.85,,2013-04-18 21:43:00,
2013-04-18 16:53:00,58.0,55.0,29.53,West,260,22.0,49.0,90,0.01,,,2.85,,2013-04-18 21:53:00,
2013-04-18 17:02:00,54.0,51.0,29.52,West,260,17.0,49.0,89,0.01,,,2.85,,2013-04-18 22:02:00,
2013-04-18 17:13:00,53.0,49.0,29.53,West,260,22.0,44.0,85,0.06,,,2.67,,2013-04-18 22:13:00,
2013-04-18 17:22:00,53.0,49.0,29.53,West,260,22.0,44.0,85,0.06,,,2.67,,2013-04-18 22:22:00,
2013-04-18 17:32:00,52.0,47.0,29.55,WSW,250,22.0,36.0,82,0.05,,,2.67,,2013-04-18 22:32:00,
2013-04-18 17:42:00,51.0,46.0,29.54,WSW,250,14.0,33.0,82,0.05,,,2.67,,2013-04-18 22:42:00,
2013-04-18 17:52:00,51.0,46.0,29.54,WSW,250,14.0,33.0,82,0.05,,,2.67,,2013-04-18 22:52:00,
2013-04-18 18:03:00,50.0,46.0,29.55,West,260,20.0,32.0,86,0.05,,,2.67,,2013-04-18 23:03:00,
2013-04-18 18:11:00,50.0,46.0,29.55,West,260,20.0,32.0,86,0.00,,,2.29,,2013-04-18 23:11:00,
2013-04-18 18:21:00,50.0,46.0,29.55,West,260,20.0,32.0,86,0.00,,,2.29,,2013-04-18 23:21:00,
2013-04-18 18:32:00,49.0,43.0,29.57,West,260,21.0,40.0,79,0.00,,,2.29,,2013-04-18 23:32:00,
2013-04-18 18:42:00,49.0,43.0,29.57,West,260,21.0,40.0,79,0.00,,,2.29,,2013-04-18 23:42:00,
2013-04-18 18:52:00,49.0,43.0,29.57,West,260,21.0,40.0,79,0.00,,,2.29,,2013-04-18 23:52:00,
2013-04-18 19:01:00,49.0,43.0,29.57,West,260,21.0,40.0,79,0.00,,,2.29,,2013-04-19 00:01:00,
2013-04-18 19:12:00,46.0,41.0,29.59,West,260,17.0,40.0,81,0.00,,,2.15,,2013-04-19 00:12:00,
2013-04-18 19:21:00,46.0,41.0,29.59,West,260,17.0,40.0,81,0.00,,,2.15,,2013-04-19 00:21:00,
2013-04-18 19:32:00,47.0,41.0,29.59,WSW,250,18.0,29.0,79,0.00,,,2.15,,2013-04-19 00:32:00,
2013-04-18 19:42:00,47.0,41.0,29.59,WSW,250,18.0,28.0,79,0.00,,,2.15,,2013-04-19 00:42:00,
2013-04-18 19:52:00,47.0,41.0,29.59,WSW,250,18.0,28.0,79,0.00,,,2.15,,2013-04-19 00:52:00,
2013-04-18 20:01:00,47.0,41.0,29.59,WSW,250,18.0,28.0,79,0.00,,,2.15,,2013-04-19 01:01:00,
2013-04-18 20:11:00,47.0,41.0,29.59,WSW,250,18.0,28.0,79,0.00,,,2.15,,2013-04-19 01:11:00,
2013-04-18 20:21:00,47.0,41.0,29.59,WSW,250,18.0,28.0,79,0.00,,,2.10,,2013-04-19 01:21:00,
2013-04-18 20:31:00,46.0,39.0,29.64,West,260,16.0,29.0,76,0.00,,,2.10,,2013-04-19 01:31:00,
2013-04-18 20:42:00,46.0,39.0,29.64,West,260,16.0,29.0,76,0.00,,,2.10,,2013-04-19 01:42:00,
2013-04-18 20:52:00,46.0,39.0,29.64,West,260,16.0,29.0,76,0.00,,,2.10,,2013-04-19 01:52:00,
2013-04-18 21:01:00,46.0,39.0,29.64,West,260,16.0,29.0,76,0.00,,,2.10,,2013-04-19 02:01:00,
2013-04-18 21:11:00,46.0,39.0,29.64,West,260,16.0,29.0,76,0.00,,,2.10,,2013-04-19 02:11:00,
2013-04-18 21:21:00,46.0,39.0,29.64,West,260,16.0,29.0,76,0.00,,,2.09,,2013-04-19 02:21:00,
2013-04-18 21:32:00,43.0,36.0,29.64,West,270,26.0,44.0,76,0.00,,,2.09,,2013-04-19 02:32:00,
2013-04-18 21:42:00,42.0,35.0,29.63,West,270,24.0,44.0,75,0.00,,,2.09,,2013-04-19 02:42:00,
2013-04-18 21:52:00,42.0,35.0,29.63,West,270,24.0,44.0,75,0.00,,,2.09,,2013-04-19 02:52:00,
2013-04-18 22:01:00,42.0,35.0,29.63,West,270,24.0,44.0,75,0.00,,,2.09,,2013-04-19 03:01:00,
2013-04-18 22:11:00,42.0,35.0,29.63,West,270,24.0,44.0,75,0.00,,,2.09,,2013-04-19 03:11:00,
2013-04-18 22:21:00,42.0,35.0,29.63,West,270,24.0,44.0,75,0.00,,,2.02,,2013-04-19 03:21:00,
2013-04-18 22:32:00,42.0,34.0,29.67,West,270,26.0,44.0,72,0.00,,,2.02,,2013-04-19 03:32:00,
2013-04-18 22:43:00,42.0,34.0,29.67,West,270,26.0,37.0,72,0.00,,,2.02,,2013-04-19 03:43:00,
2013-04-18 22:53:00,42.0,34.0,29.67,West,270,26.0,37.0,72,0.00,,,2.02,,2013-04-19 03:53:00,
2013-04-18 23:03:00,42.0,34.0,29.67,West,270,26.0,37.0,72,0.00,,,2.02,,2013-04-19 04:03:00,
2013-04-18 23:13:00,42.0,34.0,29.67,West,270,26.0,37.0,72,0.00,,,2.02,,2013-04-19 04:13:00,
2013-04-18 23:23:00,42.0,34.0,29.67,West,270,26.0,37.0,72,0.00,,,1.09,,2013-04-19 04:23:00,
2013-04-18 23:33:00,40.0,32.0,29.66,West,270,15.0,37.0,73,0.00,,,1.09,,2013-04-19 04:33:00,
2013-04-18 23:43:00,40.0,32.0,29.66,West,270,15.0,36.0,73,0.00,,,1.09,,2013-04-19 04:43:00,
2013-04-18 23:52:00,40.0,32.0,29.66,West,270,15.0,36.0,73,0.00,,,1.09,,2013-04-19 04:52:00,